| time (UTC) | temp F | wind direction | speed MPH | gust MPH | rain 1hr in | rain 24hr in | rain mn in | humidity % | barometer mb |
| 20260902120043 | 61 | 203 | 0.0 | 2.0 | 0.00 | 0.00 | 0.00 | 86 | 1005.5 |
| 20260902114609 | 60 | 64 | 0.0 | 2.0 | 0.00 | 0.00 | 0.00 | 88 | 1005.6 |
| 20260902113041 | 60 | 342 | 0.0 | 1.0 | 0.00 | 0.00 | 0.00 | 88 | 1005.8 |
| 20260902111537 | 61 | 52 | 0.0 | 0.0 | 0.00 | 0.00 | 0.00 | 86 | 1006.0 |
| 20260902110038 | 61 | 58 | 0.0 | 3.0 | 0.00 | 0.00 | 0.00 | 85 | 1006.1 |
| 20260902104536 | 60 | 67 | 0.0 | 0.0 | 0.00 | 0.00 | 0.00 | 88 | 1006.3 |
| 20260902103033 | 60 | 159 | 0.0 | 0.0 | 0.00 | 0.00 | 0.00 | 88 | 1006.4 |
| 20260902101533 | 60 | 220 | 0.0 | 5.0 | 0.00 | 0.00 | 0.00 | 88 | 1006.5 |
| 20260902100031 | 60 | 77 | 0.0 | 4.0 | 0.00 | 0.00 | 0.00 | 89 | 1006.5 |
| 20260902094530 | 61 | 68 | 0.0 | 1.0 | 0.00 | 0.00 | 0.00 | 88 | 1006.6 |
| 20260902093028 | 61 | 70 | 0.0 | 3.0 | 0.00 | 0.00 | 0.00 | 89 | 1006.6 |
| 20260902091525 | 61 | 136 | 0.0 | 3.0 | 0.00 | 0.00 | 0.00 | 88 | 1006.8 |
| 20260902090028 | 62 | 193 | 0.0 | 3.0 | 0.00 | 0.00 | 0.00 | 87 | 1006.9 |
| 20260902084524 | 63 | 187 | 0.0 | 0.0 | 0.00 | 0.00 | 0.00 | 85 | 1006.9 |
| 20260902083029 | 62 | 115 | 0.0 | 1.0 | 0.00 | 0.00 | 0.00 | 86 | 1006.9 |
| 20260902081523 | 62 | 68 | 0.0 | 2.0 | 0.00 | 0.00 | 0.00 | 87 | 1006.8 |
| 20260902080021 | 62 | 339 | 0.0 | 1.0 | 0.00 | 0.00 | 0.00 | 88 | 1006.9 |
| 20260902074525 | 62 | 58 | 0.0 | 1.0 | 0.00 | 0.00 | 0.00 | 88 | 1006.9 |
| 20260902073022 | 62 | 68 | 0.0 | 2.0 | 0.00 | 0.00 | 0.00 | 88 | 1007.0 |
| 20260902071518 | 62 | 63 | 0.0 | 2.0 | 0.00 | 0.00 | 0.00 | 87 | 1007.0 |
| 20260902070015 | 62 | 63 | 0.0 | 3.0 | 0.00 | 0.00 | 0.00 | 87 | 1007.0 |
| 20260902064517 | 62 | 54 | 0.0 | 1.0 | 0.00 | 0.00 | 0.00 | 85 | 1007.1 |
| 20260902063014 | 63 | 65 | 0.0 | 1.0 | 0.00 | 0.00 | 0.00 | 84 | 1007.2 |
| 20260902061520 | 63 | 102 | 0.0 | 1.0 | 0.00 | 0.00 | 0.00 | 83 | 1007.2 |
| 20260902060013 | 64 | 53 | 0.0 | 3.0 | 0.00 | 0.00 | 0.00 | 81 | 1007.3 |
| 20260902054512 | 64 | 354 | 0.0 | 0.0 | 0.00 | 0.00 | 0.00 | 79 | 1007.5 |
| 20260902053012 | 64 | 56 | 0.0 | 0.0 | 0.00 | 0.00 | 0.00 | 78 | 1007.4 |
| 20260902051513 | 64 | 63 | 0.0 | 3.0 | 0.00 | 0.00 | 0.00 | 77 | 1007.4 |
| 20260902050020 | 65 | 55 | 0.0 | 2.0 | 0.00 | 0.00 | 0.00 | 75 | 1007.3 |
| 20260902044511 | 65 | 60 | 0.0 | 3.0 | 0.00 | 0.00 | 0.00 | 74 | 1007.4 |
| 20260902043013 | 66 | 62 | 0.0 | 2.0 | 0.00 | 0.00 | 0.00 | 71 | 1007.4 |
| 20260902041519 | 66 | 158 | 0.0 | 0.0 | 0.00 | 0.00 | 0.00 | 70 | 1007.5 |
| 20260902040008 | 66 | 84 | 0.0 | 2.0 | 0.00 | 0.00 | 0.00 | 69 | 1007.4 |
| 20260902034508 | 66 | 50 | 0.0 | 4.0 | 0.00 | 0.00 | 0.00 | 68 | 1007.1 |
| 20260902033009 | 66 | 46 | 0.0 | 3.0 | 0.00 | 0.00 | 0.00 | 68 | 1007.1 |
| 20260902031507 | 66 | 42 | 0.0 | 6.0 | 0.00 | 0.00 | 0.00 | 68 | 1007.1 |
| 20260902030006 | 66 | 74 | 0.0 | 3.0 | 0.00 | 0.00 | 0.00 | 69 | 1007.1 |
| 20260902024506 | 66 | 66 | 0.0 | 6.0 | 0.00 | 0.00 | 0.00 | 70 | 1007.0 |
| 20260902023005 | 67 | 67 | 0.0 | 4.0 | 0.00 | 0.00 | 0.00 | 69 | 1007.1 |
| 20260902021513 | 67 | 46 | 1.0 | 4.0 | 0.00 | 0.00 | 0.00 | 66 | 1007.2 |
| 20260902020004 | 67 | 190 | 0.0 | 2.0 | 0.00 | 0.00 | 0.00 | 66 | 1007.3 |
| 20260902014503 | 67 | 208 | 0.0 | 2.0 | 0.00 | 0.00 | 0.00 | 65 | 1007.2 |
| 20260902013004 | 68 | 169 | 0.0 | 3.0 | 0.00 | 0.00 | 0.00 | 65 | 1007.3 |
| 20260902011503 | 68 | 209 | 0.0 | 2.0 | 0.00 | 0.00 | 0.00 | 64 | 1007.2 |
| 20260902010005 | 68 | 153 | 0.0 | 4.0 | 0.00 | 0.00 | 0.00 | 64 | 1007.2 |
| 20260902004502 | 69 | 34 | 0.0 | 4.0 | 0.00 | 0.00 | 0.00 | 64 | 1007.0 |
| 20260902003001 | 68 | 83 | 1.0 | 4.0 | 0.00 | 0.00 | 0.00 | 64 | 1007.0 |
| 20260902001608 | 68 | 63 | 1.0 | 5.0 | 0.00 | 0.00 | 0.00 | 64 | 1007.1 |
| 20260902000129 | 69 | 79 | 0.0 | 3.0 | 0.00 | 0.00 | 0.00 | 66 | 1007.1 |
| 20260901234606 | 69 | 203 | 0.0 | 4.0 | 0.00 | 0.00 | 0.00 | 65 | 1007.1 |
| 20260901233107 | 69 | 225 | 0.0 | 3.0 | 0.00 | 0.00 | 0.00 | 66 | 1006.9 |
| 20260901231603 | 69 | 127 | 0.0 | 3.0 | 0.00 | 0.00 | 0.00 | 67 | 1006.9 |
| 20260901224556 | 70 | 92 | 0.0 | 5.0 | 0.00 | 0.00 | 0.00 | 67 | 1007.0 |
| 20260901223054 | 70 | 122 | 0.0 | 6.0 | 0.00 | 0.00 | 0.00 | 66 | 1007.0 |
| 20260901221554 | 71 | 107 | 0.0 | 4.0 | 0.00 | 0.00 | 0.00 | 65 | 1007.2 |
| 20260901220053 | 71 | 207 | 0.0 | 8.0 | 0.00 | 0.00 | 0.00 | 64 | 1007.2 |
| 20260901214604 | 73 | 294 | 0.0 | 8.0 | 0.00 | 0.00 | 0.00 | 60 | 1007.3 |
| 20260901213134 | 74 | 115 | 1.0 | 4.0 | 0.00 | 0.00 | 0.00 | 59 | 1007.2 |
| 20260901211551 | 74 | 197 | 1.0 | 4.0 | 0.00 | 0.00 | 0.00 | 59 | 1007.2 |
| 20260901210050 | 74 | 242 | 1.0 | 6.0 | 0.00 | 0.00 | 0.00 | 55 | 1007.2 |
| 20260901204550 | 75 | 186 | 1.0 | 5.0 | 0.00 | 0.00 | 0.00 | 55 | 1007.2 |
| 20260901203115 | 75 | 124 | 0.0 | 3.0 | 0.00 | 0.00 | 0.00 | 55 | 1007.2 |
| 20260901201556 | 76 | 141 | 0.0 | 3.0 | 0.00 | 0.00 | 0.00 | 54 | 1007.3 |
| 20260901200047 | 75 | 122 | 0.0 | 3.0 | 0.00 | 0.00 | 0.00 | 55 | 1007.3 |
| 20260901194547 | 76 | 208 | 1.0 | 5.0 | 0.00 | 0.00 | 0.00 | 56 | 1007.5 |
| 20260901193043 | 74 | 65 | 0.0 | 5.0 | 0.00 | 0.00 | 0.00 | 60 | 1007.4 |
| 20260901191543 | 74 | 169 | 0.0 | 5.0 | 0.00 | 0.00 | 0.00 | 61 | 1007.5 |
| 20260901190037 | 72 | 159 | 0.0 | 7.0 | 0.00 | 0.00 | 0.00 | 63 | 1007.6 |
| 20260901184537 | 73 | 51 | 2.0 | 5.0 | 0.00 | 0.00 | 0.00 | 63 | 1007.6 |
| 20260901183036 | 71 | 186 | 2.0 | 8.0 | 0.00 | 0.00 | 0.00 | 66 | 1007.7 |
| 20260901181532 | 71 | 115 | 2.0 | 6.0 | 0.00 | 0.00 | 0.00 | 67 | 1007.8 |
| 20260901180030 | 70 | 202 | 1.0 | 5.0 | 0.00 | 0.00 | 0.00 | 67 | 1007.9 |
| 20260901174526 | 69 | 182 | 0.0 | 5.0 | 0.00 | 0.00 | 0.00 | 71 | 1008.0 |
| 20260901173024 | 67 | 181 | 0.0 | 3.0 | 0.00 | 0.00 | 0.00 | 72 | 1008.0 |
| 20260901171521 | 66 | 139 | 0.0 | 6.0 | 0.00 | 0.00 | 0.00 | 75 | 1008.0 |
| 20260901170017 | 65 | 75 | 0.0 | 4.0 | 0.00 | 0.00 | 0.00 | 78 | 1008.0 |
| 20260901164514 | 64 | 57 | 0.0 | 3.0 | 0.00 | 0.00 | 0.00 | 81 | 1008.2 |
| 20260901163014 | 63 | 66 | 1.0 | 4.0 | 0.00 | 0.00 | 0.00 | 83 | 1008.2 |
| 20260901161508 | 62 | 65 | 1.0 | 6.0 | 0.00 | 0.00 | 0.00 | 84 | 1008.3 |
| 20260901160009 | 61 | 71 | 0.0 | 4.0 | 0.00 | 0.00 | 0.00 | 89 | 1008.4 |
| 20260901154502 | 60 | 42 | 0.0 | 2.0 | 0.00 | 0.00 | 0.00 | 90 | 1008.3 |
| 20260901153116 | 59 | 65 | 0.0 | 1.0 | 0.00 | 0.00 | 0.00 | 90 | 1008.2 |
| 20260901151555 | 58 | 209 | 0.0 | 0.0 | 0.00 | 0.00 | 0.00 | 91 | 1008.1 |
| 20260901150053 | 57 | 155 | 0.0 | 0.0 | 0.00 | 0.00 | 0.00 | 91 | 1007.9 |
| 20260901144553 | 56 | 48 | 0.0 | 1.0 | 0.00 | 0.00 | 0.00 | 91 | 1007.9 |
| 20260901143051 | 55 | 310 | 0.0 | 0.0 | 0.00 | 0.00 | 0.00 | 92 | 1007.8 |
| 20260901141552 | 54 | 310 | 0.0 | 0.0 | 0.00 | 0.00 | 0.00 | 92 | 1007.5 |
| 20260901140048 | 54 | 310 | 0.0 | 0.0 | 0.00 | 0.00 | 0.00 | 92 | 1007.6 |
| 20260901134547 | 55 | 310 | 0.0 | 0.0 | 0.00 | 0.00 | 0.00 | 91 | 1007.5 |
| 20260901133046 | 55 | 309 | 0.0 | 0.0 | 0.00 | 0.00 | 0.00 | 92 | 1007.5 |
| 20260901131545 | 55 | 309 | 0.0 | 0.0 | 0.00 | 0.00 | 0.00 | 92 | 1007.3 |
| 20260901130044 | 55 | 310 | 0.0 | 0.0 | 0.00 | 0.00 | 0.00 | 91 | 1007.4 |
| 20260901124544 | 55 | 310 | 0.0 | 0.0 | 0.00 | 0.00 | 0.00 | 91 | 1007.4 |
| 20260901123043 | 55 | 309 | 0.0 | 0.0 | 0.00 | 0.00 | 0.00 | 91 | 1007.4 |
| 20260901121541 | 55 | 310 | 0.0 | 0.0 | 0.00 | 0.00 | 0.00 | 91 | 1007.5 |